Location: Unspecified
(0.0000°N, 0.0000°E)
Time: 23:02:50
(UTC+00:00)

KAITUO 1B - Visible Passes

Search period start: 02 July 2020 00:00
Search period end: 12 July 2020 00:00
Orbit: 496 x 514 km, 97.4° (Epoch: 02 July)

Date Brightness Start Highest point End Pass type
(mag) Time Alt. Az. Time Alt. Az. Time Alt. Az.
03 Jul ? 05:36:08 10° NE 05:39:29 32° ESE 05:42:49 10° SSE visible
04 Jul ? 05:18:53 10° ENE 05:21:20 17° ESE 05:23:47 10° SE visible
04 Jul ? 18:43:16 10° SW 18:45:49 18° W 18:48:22 10° WNW visible
09 Jul ? 05:21:30 10° NE 05:24:07 19° ESE 05:26:44 10° SSE visible
09 Jul ? 18:46:14 10° SW 18:48:36 16° W 18:50:58 10° WNW visible
10 Jul ? 18:27:08 10° SSW 18:30:27 31° W 18:33:45 10° NW visible
